KLM648 KPHX-KASE

Flight info

Callsign KLM648
Flight time 1h 13m
Altitude 36000
Route YOOPR DCT HUTGI DCT SLIPY
Aircraft B738/M-SDE2E3FGIJ1RWYZ/LB1

Departure

Time 2026-04-30 13:02
Airport Phoenix Sky Harbor International Airport (KPHX)

Arrival

Time 2026-04-30 14:15
Airport Aspen-Pitkin County Airport (Sardy Field) (KASE)
Time Latitude Longitude Altitude Speed Heading
2026-04-30 12:42 33.43816 -112.00912 1130 ft 0 kts 172°
2026-04-30 12:48 33.43823 -112.00914 1134 ft 3 kts 171°
2026-04-30 12:48 33.43842 -112.00917 1133 ft 2 kts 179°
2026-04-30 12:48 33.43852 -112.00916 1133 ft 1 kts 227°
2026-04-30 12:48 33.43856 -112.00907 1135 ft 1 kts 265°
2026-04-30 12:49 33.43856 -112.00897 1134 ft 1 kts 271°
2026-04-30 12:49 33.43856 -112.00890 1136 ft 0 kts 272°
2026-04-30 12:51 33.43861 -112.00899 1134 ft 3 kts 299°
2026-04-30 12:51 33.43887 -112.00942 1133 ft 8 kts 307°
2026-04-30 12:51 33.43902 -112.00997 1130 ft 0 kts 269°
2026-04-30 12:52 33.43902 -112.00999 1130 ft 1 kts 269°
2026-04-30 12:53 33.43902 -112.01026 1130 ft 5 kts 270°
2026-04-30 12:53 33.43902 -112.01080 1133 ft 9 kts 269°
2026-04-30 12:53 33.43902 -112.01155 1130 ft 11 kts 270°
2026-04-30 12:54 33.43902 -112.01234 1130 ft 10 kts 270°
2026-04-30 12:54 33.43902 -112.01318 1130 ft 10 kts 270°
2026-04-30 12:54 33.43902 -112.01399 1130 ft 10 kts 270°
2026-04-30 12:54 33.43902 -112.01480 1130 ft 9 kts 270°
2026-04-30 12:55 33.43903 -112.01558 1130 ft 9 kts 270°
2026-04-30 12:55 33.43903 -112.01634 1130 ft 9 kts 270°
2026-04-30 12:55 33.43904 -112.01708 1129 ft 9 kts 270°
2026-04-30 12:55 33.43905 -112.01779 1129 ft 8 kts 270°
2026-04-30 12:56 33.43904 -112.01849 1129 ft 8 kts 269°
2026-04-30 12:56 33.43903 -112.01921 1129 ft 9 kts 269°
2026-04-30 12:56 33.43903 -112.01998 1129 ft 11 kts 270°
2026-04-30 12:56 33.43911 -112.02091 1133 ft 11 kts 299°
2026-04-30 12:57 33.43982 -112.02107 1123 ft 11 kts 33°
2026-04-30 12:57 33.44039 -112.02058 1119 ft 7 kts
2026-04-30 12:57 33.44082 -112.02058 1126 ft 7 kts 54°
2026-04-30 12:57 33.44086 -112.02026 1126 ft 0 kts 90°
2026-04-30 13:01 33.44086 -112.02023 1126 ft 3 kts 90°
2026-04-30 13:01 33.44086 -112.01718 1130 ft 79 kts 90°
2026-04-30 13:02 33.44084 -112.00724 1140 ft 155 kts 91°
2026-04-30 13:02 33.44084 -111.99314 1758 ft 181 kts 91°
2026-04-30 13:02 33.44096 -111.97742 2661 ft 188 kts 80°
2026-04-30 13:02 33.44459 -111.96210 3584 ft 201 kts 75°
2026-04-30 13:03 33.44495 -111.94524 4273 ft 209 kts 98°
2026-04-30 13:03 33.44222 -111.92778 4914 ft 216 kts 101°
2026-04-30 13:03 33.43934 -111.91001 5590 ft 218 kts 100°
2026-04-30 13:03 33.43661 -111.89215 6328 ft 218 kts 100°
2026-04-30 13:04 33.43716 -111.87354 6665 ft 238 kts 68°
2026-04-30 13:04 33.44790 -111.85775 6962 ft 259 kts 31°
2026-04-30 13:04 33.46536 -111.85098 7389 ft 275 kts
2026-04-30 13:04 33.48470 -111.84913 8162 ft 282 kts
2026-04-30 13:05 33.50451 -111.84811 8723 ft 286 kts
2026-04-30 13:05 33.52445 -111.84703 9007 ft 287 kts
2026-04-30 13:05 33.54444 -111.84571 9014 ft 285 kts
2026-04-30 13:06 33.58415 -111.84256 9041 ft 289 kts
2026-04-30 13:06 33.60425 -111.84082 9032 ft 290 kts
2026-04-30 13:06 33.62441 -111.83903 9037 ft 290 kts
2026-04-30 13:06 33.64455 -111.83724 9029 ft 290 kts
2026-04-30 13:07 33.66457 -111.83373 9122 ft 292 kts 13°
2026-04-30 13:07 33.68423 -111.82727 9854 ft 294 kts 15°
2026-04-30 13:07 33.70397 -111.82029 10590 ft 302 kts 15°
2026-04-30 13:07 33.72505 -111.81304 10801 ft 328 kts 14°
2026-04-30 13:08 33.74791 -111.80545 10992 ft 353 kts 14°
2026-04-30 13:08 33.77194 -111.79760 11362 ft 368 kts 14°
2026-04-30 13:08 33.79666 -111.78831 12007 ft 377 kts 23°
2026-04-30 13:08 33.81877 -111.77090 12740 ft 383 kts 36°
2026-04-30 13:09 33.83993 -111.75102 13427 ft 389 kts 36°
2026-04-30 13:09 33.86144 -111.73070 14047 ft 395 kts 36°
2026-04-30 13:09 33.88324 -111.71026 14662 ft 400 kts 36°
2026-04-30 13:09 33.90536 -111.68969 15294 ft 404 kts 35°
2026-04-30 13:10 33.92781 -111.66894 15909 ft 409 kts 35°
2026-04-30 13:10 33.95061 -111.64793 16545 ft 414 kts 35°
2026-04-30 13:10 33.97329 -111.62705 17153 ft 418 kts 35°
2026-04-30 13:10 33.99656 -111.60559 17761 ft 423 kts 35°
2026-04-30 13:11 34.02057 -111.58472 18347 ft 427 kts 31°
2026-04-30 13:11 34.04565 -111.56508 18859 ft 431 kts 29°
2026-04-30 13:11 34.07120 -111.54591 19375 ft 435 kts 28°
2026-04-30 13:11 34.09712 -111.52663 19947 ft 438 kts 28°
2026-04-30 13:12 34.11429 -111.51379 20346 ft 440 kts 28°
2026-04-30 13:12 34.14044 -111.49409 20842 ft 445 kts 28°
2026-04-30 13:12 34.17535 -111.46750 21537 ft 450 kts 28°
2026-04-30 13:13 34.22851 -111.42663 22539 ft 456 kts 28°
2026-04-30 13:13 34.24632 -111.41289 22857 ft 458 kts 28°
2026-04-30 13:13 34.30035 -111.37114 23801 ft 463 kts 28°
2026-04-30 13:14 34.32757 -111.35009 24164 ft 466 kts 28°
2026-04-30 13:14 34.35497 -111.32891 24509 ft 469 kts 28°
2026-04-30 13:14 34.41048 -111.28592 25173 ft 475 kts 28°
2026-04-30 13:15 34.43804 -111.26456 25489 ft 479 kts 28°
2026-04-30 13:15 34.49451 -111.22072 26107 ft 485 kts 28°
2026-04-30 13:15 34.52300 -111.19858 26404 ft 488 kts 28°
2026-04-30 13:16 34.55165 -111.17629 26688 ft 491 kts 28°
2026-04-30 13:16 34.58051 -111.15382 26965 ft 494 kts 28°
2026-04-30 13:16 34.60965 -111.13112 27246 ft 497 kts 28°
2026-04-30 13:17 34.66932 -111.08797 27792 ft 500 kts 23°
2026-04-30 13:17 34.70010 -111.06805 28062 ft 502 kts 22°
2026-04-30 13:17 34.76241 -111.02858 28597 ft 508 kts 21°
2026-04-30 13:18 34.79377 -111.00849 28857 ft 510 kts 21°
2026-04-30 13:18 34.85677 -110.96749 29448 ft 515 kts 22°
2026-04-30 13:18 34.88798 -110.94695 29829 ft 515 kts 21°
2026-04-30 13:19 34.91943 -110.92619 30207 ft 514 kts 21°
2026-04-30 13:19 34.95095 -110.90536 30529 ft 514 kts 21°
2026-04-30 13:19 34.98240 -110.88457 30832 ft 515 kts 21°
2026-04-30 13:19 35.01389 -110.86376 31164 ft 515 kts 21°
2026-04-30 13:20 35.04540 -110.84293 31471 ft 515 kts 21°
2026-04-30 13:20 35.07692 -110.82209 31787 ft 515 kts 21°
2026-04-30 13:20 35.10839 -110.80127 32101 ft 515 kts 21°
2026-04-30 13:20 35.13996 -110.78036 32391 ft 515 kts 21°
2026-04-30 13:21 35.17145 -110.75948 32693 ft 515 kts 20°
2026-04-30 13:21 35.20304 -110.73852 32981 ft 515 kts 20°
2026-04-30 13:21 35.23412 -110.71788 33263 ft 515 kts 20°
2026-04-30 13:22 35.29738 -110.67581 33814 ft 516 kts 20°
2026-04-30 13:22 35.32891 -110.65481 34097 ft 516 kts 20°
2026-04-30 13:22 35.39194 -110.61276 34614 ft 515 kts 20°
2026-04-30 13:23 35.42340 -110.59175 34862 ft 515 kts 20°
2026-04-30 13:23 35.48590 -110.54994 35459 ft 512 kts 20°
2026-04-30 13:24 35.54844 -110.50804 35956 ft 512 kts 19°
2026-04-30 13:24 35.61160 -110.46572 35947 ft 521 kts 20°
2026-04-30 13:25 35.67608 -110.42547 35926 ft 510 kts
2026-04-30 13:25 35.74283 -110.40004 35949 ft 503 kts
2026-04-30 13:26 35.84390 -110.36523 36560 ft 502 kts
2026-04-30 13:26 35.91063 -110.34080 36936 ft 501 kts
2026-04-30 13:28 36.07761 -110.27805 36926 ft 499 kts
2026-04-30 13:28 36.17712 -110.24059 36940 ft 498 kts
2026-04-30 13:29 36.30916 -110.19079 36949 ft 497 kts
2026-04-30 13:31 36.47453 -110.12816 36964 ft 497 kts
2026-04-30 13:32 36.63951 -110.06536 36965 ft 496 kts
2026-04-30 13:33 36.77149 -110.01493 36976 ft 494 kts
2026-04-30 13:34 36.86835 -109.96927 36976 ft 502 kts 14°
2026-04-30 13:35 36.99581 -109.89890 36973 ft 498 kts 14°
2026-04-30 13:36 37.12285 -109.83058 36986 ft 495 kts 14°
2026-04-30 13:36 37.21775 -109.77952 36984 ft 494 kts 14°
2026-04-30 13:37 37.31231 -109.72845 36995 ft 492 kts 14°
2026-04-30 13:38 37.40664 -109.67735 37035 ft 492 kts 14°
2026-04-30 13:39 37.53217 -109.60914 37095 ft 491 kts 14°
2026-04-30 13:40 37.62602 -109.55798 37098 ft 492 kts 14°
2026-04-30 13:40 37.68892 -109.52360 37091 ft 493 kts 14°
2026-04-30 13:41 37.75198 -109.48908 37065 ft 493 kts 14°
2026-04-30 13:41 37.81478 -109.45362 37044 ft 500 kts 19°
2026-04-30 13:42 37.87493 -109.40881 37030 ft 505 kts 23°
2026-04-30 13:42 37.96482 -109.33821 37012 ft 506 kts 22°
2026-04-30 13:43 38.02512 -109.29207 37019 ft 507 kts 22°
2026-04-30 13:43 38.08570 -109.24584 37019 ft 507 kts 22°
2026-04-30 13:44 38.14582 -109.19847 37025 ft 511 kts 25°
2026-04-30 13:44 38.20456 -109.14830 37019 ft 512 kts 25°
2026-04-30 13:45 38.29302 -109.07220 37019 ft 511 kts 25°
2026-04-30 13:46 38.35205 -109.02195 37004 ft 510 kts 25°
2026-04-30 13:46 38.41127 -108.97159 37015 ft 510 kts 25°
2026-04-30 13:47 38.46996 -108.92155 37012 ft 510 kts 25°
2026-04-30 13:47 38.52887 -108.87120 37014 ft 510 kts 25°
2026-04-30 13:48 38.58790 -108.82062 37016 ft 510 kts 25°
2026-04-30 13:48 38.64692 -108.76996 37008 ft 511 kts 25°
2026-04-30 13:49 38.70598 -108.71915 36998 ft 511 kts 25°
2026-04-30 13:49 38.76429 -108.66796 36995 ft 516 kts 31°
2026-04-30 13:49 38.79063 -108.63591 36924 ft 529 kts 42°
2026-04-30 13:50 38.81305 -108.59768 36252 ft 543 kts 54°
2026-04-30 13:50 38.84302 -108.50829 34977 ft 549 kts 68°
2026-04-30 13:50 38.85574 -108.46203 34241 ft 552 kts 69°
2026-04-30 13:51 38.86856 -108.41540 33393 ft 553 kts 68°
2026-04-30 13:51 38.88157 -108.36926 32816 ft 547 kts 68°
2026-04-30 13:51 38.89474 -108.32368 32021 ft 545 kts 68°
2026-04-30 13:51 38.90806 -108.27828 31351 ft 540 kts 67°
2026-04-30 13:52 38.92124 -108.23352 30999 ft 528 kts 67°
2026-04-30 13:52 38.93416 -108.18954 30455 ft 522 kts 68°
2026-04-30 13:52 38.94673 -108.14647 30258 ft 509 kts 68°
2026-04-30 13:52 38.95899 -108.10431 29835 ft 500 kts 68°
2026-04-30 13:53 38.97108 -108.06264 29179 ft 495 kts 68°
2026-04-30 13:53 38.98305 -108.02132 28535 ft 491 kts 68°
2026-04-30 13:53 38.99476 -107.98083 27948 ft 486 kts 68°
2026-04-30 13:53 39.00646 -107.94032 27386 ft 481 kts 68°
2026-04-30 13:54 39.01803 -107.90020 26842 ft 476 kts 68°
2026-04-30 13:54 39.02948 -107.86043 26274 ft 471 kts 68°
2026-04-30 13:54 39.04079 -107.82112 25744 ft 466 kts 68°
2026-04-30 13:54 39.05200 -107.78209 25202 ft 462 kts 69°
2026-04-30 13:55 39.06299 -107.74373 24582 ft 451 kts 69°
2026-04-30 13:55 39.07379 -107.70599 23814 ft 449 kts 69°
2026-04-30 13:55 39.08451 -107.66855 23356 ft 444 kts 69°
2026-04-30 13:55 39.09514 -107.63131 22828 ft 441 kts 69°
2026-04-30 13:56 39.10551 -107.59497 22367 ft 437 kts 69°
2026-04-30 13:56 39.11612 -107.55849 21925 ft 431 kts 68°
2026-04-30 13:56 39.12665 -107.52268 21473 ft 425 kts 68°
2026-04-30 13:56 39.13707 -107.48726 21037 ft 419 kts 68°
2026-04-30 13:57 39.14731 -107.45227 20606 ft 411 kts 68°
2026-04-30 13:57 39.15711 -107.41843 20183 ft 397 kts 70°
2026-04-30 13:57 39.16206 -107.38426 19909 ft 380 kts 89°
2026-04-30 13:57 39.16182 -107.35103 19744 ft 363 kts 91°
2026-04-30 13:58 39.16116 -107.31940 19564 ft 354 kts 92°
2026-04-30 13:58 39.15981 -107.25644 19225 ft 350 kts 91°
2026-04-30 13:58 39.15924 -107.22514 19076 ft 349 kts 91°
2026-04-30 13:59 39.15873 -107.19386 18905 ft 349 kts 91°
2026-04-30 13:59 39.15825 -107.16250 18610 ft 352 kts 91°
2026-04-30 13:59 39.15778 -107.13108 18418 ft 348 kts 91°
2026-04-30 13:59 39.15732 -107.09999 18214 ft 345 kts 91°
2026-04-30 14:00 39.15702 -107.07960 18086 ft 343 kts 91°
2026-04-30 14:00 39.15610 -107.01903 17733 ft 332 kts 91°
2026-04-30 14:00 39.15564 -106.98904 17571 ft 335 kts 91°
2026-04-30 14:01 39.15517 -106.95892 17429 ft 336 kts 91°
2026-04-30 14:01 39.15468 -106.92901 17217 ft 330 kts 91°
2026-04-30 14:01 39.15451 -106.89983 17055 ft 322 kts 84°
2026-04-30 14:01 39.16031 -106.87261 16976 ft 310 kts 62°
2026-04-30 14:02 39.17246 -106.85011 16735 ft 303 kts 48°
2026-04-30 14:02 39.18604 -106.82965 16573 ft 299 kts 47°
2026-04-30 14:02 39.19963 -106.80950 16367 ft 298 kts 47°
2026-04-30 14:02 39.21323 -106.78927 16185 ft 298 kts 47°
2026-04-30 14:03 39.22654 -106.76930 16009 ft 297 kts 47°
2026-04-30 14:03 39.23996 -106.74902 15834 ft 298 kts 48°
2026-04-30 14:03 39.25342 -106.72861 15648 ft 299 kts 48°
2026-04-30 14:03 39.26683 -106.70819 15446 ft 298 kts 48°
2026-04-30 14:04 39.28023 -106.68782 15265 ft 295 kts 47°
2026-04-30 14:04 39.29575 -106.67125 15030 ft 286 kts 23°
2026-04-30 14:04 39.31449 -106.66496 14839 ft 275 kts
2026-04-30 14:04 39.33310 -106.66807 14597 ft 268 kts 340°
2026-04-30 14:05 39.35042 -106.67652 14401 ft 265 kts 337°
2026-04-30 14:05 39.36749 -106.68529 14161 ft 263 kts 337°
2026-04-30 14:05 39.38408 -106.69405 14014 ft 257 kts 331°
2026-04-30 14:05 39.39760 -106.70828 14001 ft 248 kts 311°
2026-04-30 14:06 39.40921 -106.72489 13986 ft 250 kts 311°
2026-04-30 14:06 39.43254 -106.75854 13999 ft 253 kts 311°
2026-04-30 14:07 39.45611 -106.79230 14021 ft 253 kts 311°
2026-04-30 14:07 39.46794 -106.80919 14014 ft 251 kts 311°
2026-04-30 14:07 39.47943 -106.82558 14038 ft 240 kts 311°
2026-04-30 14:08 39.50019 -106.85679 14031 ft 222 kts 297°
2026-04-30 14:08 39.50515 -106.87557 14042 ft 221 kts 280°
2026-04-30 14:08 39.50434 -106.91511 14049 ft 221 kts 257°
2026-04-30 14:09 39.49912 -106.93386 13955 ft 220 kts 242°
2026-04-30 14:09 39.49069 -106.95016 13869 ft 217 kts 231°
2026-04-30 14:09 39.46671 -106.97292 13739 ft 220 kts 206°
2026-04-30 14:10 39.45191 -106.97899 13584 ft 223 kts 186°
2026-04-30 14:10 39.43717 -106.97433 13371 ft 223 kts 155°
2026-04-30 14:10 39.42299 -106.96605 13103 ft 224 kts 158°
2026-04-30 14:10 39.40865 -106.95849 12854 ft 219 kts 160°
2026-04-30 14:11 39.39478 -106.95152 12606 ft 207 kts 160°
2026-04-30 14:11 39.38170 -106.94501 12302 ft 197 kts 160°
2026-04-30 14:11 39.36929 -106.93894 11958 ft 188 kts 160°
2026-04-30 14:11 39.35735 -106.93316 11593 ft 179 kts 160°
2026-04-30 14:12 39.34597 -106.92767 11250 ft 170 kts 160°
2026-04-30 14:12 39.33528 -106.92252 10947 ft 160 kts 160°
2026-04-30 14:12 39.32502 -106.91760 10622 ft 158 kts 160°
2026-04-30 14:12 39.31471 -106.91265 10314 ft 159 kts 160°
2026-04-30 14:13 39.30429 -106.90766 9964 ft 159 kts 160°
2026-04-30 14:13 39.29397 -106.90272 9641 ft 157 kts 160°
2026-04-30 14:13 39.28371 -106.89781 9344 ft 158 kts 160°
2026-04-30 14:13 39.27340 -106.89288 9045 ft 158 kts 160°
2026-04-30 14:14 39.26324 -106.88805 8707 ft 157 kts 160°
2026-04-30 14:14 39.25298 -106.88326 8359 ft 157 kts 160°
2026-04-30 14:14 39.24260 -106.87842 8016 ft 159 kts 157°
2026-04-30 14:14 39.23230 -106.87321 7760 ft 157 kts 159°
2026-04-30 14:15 39.22268 -106.86861 7758 ft 131 kts 159°
2026-04-30 14:15 39.21614 -106.86549 7817 ft 69 kts 160°
2026-04-30 14:15 39.21447 -106.86448 7826 ft 19 kts 117°
2026-04-30 14:15 39.21512 -106.86380 7821 ft 18 kts 336°
2026-04-30 14:16 39.21631 -106.86438 7814 ft 19 kts 340°
2026-04-30 14:16 39.21760 -106.86500 7804 ft 18 kts 339°
2026-04-30 14:16 39.21887 -106.86559 7786 ft 21 kts 340°
2026-04-30 14:16 39.22028 -106.86627 7776 ft 21 kts 339°
2026-04-30 14:17 39.22097 -106.86646 7777 ft 10 kts 25°
2026-04-30 14:17 39.22098 -106.86573 7776 ft 7 kts 111°
2026-04-30 14:17 39.22103 -106.86534 7780 ft 0 kts 68°